RYR9NE EGSS-LEAL

Flight info

Callsign RYR9NE
Flight time N/A
Altitude 37000
Route NUGBO M183 SILVA Q41 COWLY UT71 VAPID UN859 SOPIL DCT BALAN DCT LMG DCT PIMQO DCT AGN DCT ANETO DCT POSSY DCT XIMPE DCT RIMES N860 VLC
Aircraft B38M/M-SADE3FGILRWY/SB1

Departure

Time N/A
Airport London Stansted Airport (EGSS)

Arrival

Time 2026-04-29 14:48
Airport Alicante-Elche Miguel Hernández Airport (LEAL)
Time Latitude Longitude Altitude Speed Heading
2026-04-29 14:25 39.50930 -0.47251 36653 ft 405 kts 193°
2026-04-29 14:26 39.48134 -0.47839 35908 ft 410 kts 186°
2026-04-29 14:26 39.45269 -0.47989 35234 ft 414 kts 179°
2026-04-29 14:26 39.42407 -0.47682 34687 ft 413 kts 173°
2026-04-29 14:26 39.39575 -0.46998 33953 ft 415 kts 171°
2026-04-29 14:27 39.36716 -0.46448 33152 ft 417 kts 176°
2026-04-29 14:27 39.33845 -0.46319 32308 ft 418 kts 183°
2026-04-29 14:27 39.30927 -0.46633 31391 ft 421 kts 189°
2026-04-29 14:28 39.25252 -0.48599 29636 ft 424 kts 203°
2026-04-29 14:28 39.22591 -0.50235 28720 ft 425 kts 208°
2026-04-29 14:28 39.19987 -0.52073 27778 ft 427 kts 209°
2026-04-29 14:28 39.17397 -0.53862 26765 ft 431 kts 207°
2026-04-29 14:29 39.14698 -0.55558 25776 ft 432 kts 205°
2026-04-29 14:29 39.11924 -0.57120 24843 ft 431 kts 203°
2026-04-29 14:29 39.09168 -0.58528 24170 ft 425 kts 201°
2026-04-29 14:29 39.06419 -0.59836 23473 ft 419 kts 200°
2026-04-29 14:30 39.03713 -0.61059 22731 ft 415 kts 200°
2026-04-29 14:30 39.00970 -0.62256 22008 ft 411 kts 199°
2026-04-29 14:30 38.98283 -0.63402 21223 ft 408 kts 199°
2026-04-29 14:30 38.95633 -0.64516 20597 ft 402 kts 199°
2026-04-29 14:31 38.92967 -0.65627 19838 ft 399 kts 198°
2026-04-29 14:31 38.90352 -0.66713 19165 ft 394 kts 198°
2026-04-29 14:31 38.87732 -0.67799 18439 ft 391 kts 198°
2026-04-29 14:31 38.85162 -0.68863 17832 ft 385 kts 198°
2026-04-29 14:32 38.82655 -0.69898 17557 ft 371 kts 198°
2026-04-29 14:32 38.80255 -0.70889 17316 ft 357 kts 198°
2026-04-29 14:32 38.77929 -0.71849 17142 ft 343 kts 199°
2026-04-29 14:32 38.75713 -0.72767 16822 ft 328 kts 199°
2026-04-29 14:33 38.73580 -0.73647 16519 ft 312 kts 199°
2026-04-29 14:33 38.71559 -0.74479 16075 ft 303 kts 199°
2026-04-29 14:33 38.69560 -0.75303 15419 ft 302 kts 199°
2026-04-29 14:33 38.67558 -0.76129 14992 ft 300 kts 199°
2026-04-29 14:34 38.65585 -0.76940 14563 ft 298 kts 198°
2026-04-29 14:34 38.63617 -0.77746 14032 ft 300 kts 198°
2026-04-29 14:34 38.61621 -0.78563 13484 ft 301 kts 198°
2026-04-29 14:34 38.59647 -0.79371 12938 ft 298 kts 198°
2026-04-29 14:35 38.57694 -0.80169 12430 ft 292 kts 198°
2026-04-29 14:35 38.55769 -0.80954 12003 ft 283 kts 198°
2026-04-29 14:35 38.53925 -0.81723 11584 ft 275 kts 201°
2026-04-29 14:35 38.52243 -0.82781 11163 ft 268 kts 217°
2026-04-29 14:36 38.51023 -0.84519 10745 ft 263 kts 242°
2026-04-29 14:36 38.50426 -0.86690 10331 ft 260 kts 258°
2026-04-29 14:36 38.50279 -0.88959 9919 ft 258 kts 274°
2026-04-29 14:36 38.50764 -0.91137 9507 ft 257 kts 297°
2026-04-29 14:37 38.51695 -0.93087 9089 ft 254 kts 301°
2026-04-29 14:37 38.52600 -0.94979 8675 ft 251 kts 292°
2026-04-29 14:37 38.53023 -0.97100 8257 ft 246 kts 269°
2026-04-29 14:37 38.52746 -0.99207 7841 ft 242 kts 245°
2026-04-29 14:38 38.51816 -1.00979 7477 ft 239 kts 225°
2026-04-29 14:38 38.50515 -1.02278 7097 ft 241 kts 205°
2026-04-29 14:38 38.48925 -1.02956 6780 ft 239 kts 193°
2026-04-29 14:38 38.47317 -1.03395 6575 ft 234 kts 191°
2026-04-29 14:39 38.45725 -1.03734 6371 ft 232 kts 181°
2026-04-29 14:39 38.44144 -1.03405 6171 ft 232 kts 158°
2026-04-29 14:39 38.42681 -1.02515 5972 ft 231 kts 152°
2026-04-29 14:39 38.41272 -1.01547 5774 ft 230 kts 151°
2026-04-29 14:40 38.39865 -1.00578 5630 ft 228 kts 151°
2026-04-29 14:40 38.38459 -0.99616 5527 ft 229 kts 151°
2026-04-29 14:40 38.37065 -0.98667 5503 ft 228 kts 151°
2026-04-29 14:40 38.35664 -0.97715 5485 ft 220 kts 151°
2026-04-29 14:41 38.34356 -0.96827 5497 ft 205 kts 151°
2026-04-29 14:41 38.33246 -0.95793 5494 ft 195 kts 129°
2026-04-29 14:41 38.32655 -0.94267 5488 ft 196 kts 99°
2026-04-29 14:41 38.32712 -0.92545 5489 ft 196 kts 79°
2026-04-29 14:42 38.32885 -0.90835 5450 ft 197 kts 89°
2026-04-29 14:42 38.32798 -0.89077 5183 ft 200 kts 97°
2026-04-29 14:42 38.32586 -0.87330 4872 ft 201 kts 99°
2026-04-29 14:42 38.32345 -0.85559 4579 ft 200 kts 99°
2026-04-29 14:43 38.32109 -0.83829 4297 ft 200 kts 99°
2026-04-29 14:43 38.31871 -0.82096 4015 ft 199 kts 99°
2026-04-29 14:43 38.31633 -0.80367 3734 ft 194 kts 98°
2026-04-29 14:43 38.31403 -0.78699 3474 ft 190 kts 98°
2026-04-29 14:44 38.31177 -0.77072 3225 ft 184 kts 98°
2026-04-29 14:44 38.30961 -0.75500 2956 ft 178 kts 98°
2026-04-29 14:44 38.30750 -0.73977 2724 ft 171 kts 98°
2026-04-29 14:44 38.30548 -0.72516 2494 ft 167 kts 98°
2026-04-29 14:45 38.30348 -0.71073 2267 ft 162 kts 98°
2026-04-29 14:45 38.30152 -0.69666 2071 ft 163 kts 98°
2026-04-29 14:45 38.29953 -0.68229 1828 ft 163 kts 98°
2026-04-29 14:45 38.29757 -0.66823 1608 ft 163 kts 98°
2026-04-29 14:46 38.29566 -0.65452 1385 ft 150 kts 98°
2026-04-29 14:46 38.29388 -0.64172 1266 ft 146 kts 98°
2026-04-29 14:46 38.29213 -0.62909 1011 ft 145 kts 99°
2026-04-29 14:46 38.29031 -0.61642 794 ft 145 kts 99°
2026-04-29 14:47 38.28853 -0.60379 679 ft 145 kts 99°
2026-04-29 14:47 38.28682 -0.59099 459 ft 149 kts 100°
2026-04-29 14:47 38.28495 -0.57788 235 ft 151 kts 101°
2026-04-29 14:47 38.28317 -0.56514 116 ft 134 kts 100°
2026-04-29 14:48 38.28191 -0.55634 93 ft 67 kts 101°
2026-04-29 14:48 38.28128 -0.55161 83 ft 36 kts 89°
2026-04-29 14:48 38.28150 -0.54879 72 ft 22 kts 71°
2026-04-29 14:48 38.28200 -0.54722 61 ft 11 kts 47°
2026-04-29 14:49 38.28246 -0.54768 61 ft 10 kts 280°
2026-04-29 14:49 38.28258 -0.54840 65 ft 6 kts 281°
2026-04-29 14:49 38.28265 -0.54891 68 ft 5 kts 280°
2026-04-29 14:49 38.28274 -0.54949 71 ft 11 kts 279°
2026-04-29 14:50 38.28295 -0.55112 79 ft 23 kts 279°
2026-04-29 14:50 38.28327 -0.55352 92 ft 28 kts 279°
2026-04-29 14:50 38.28355 -0.55550 110 ft 16 kts 281°
2026-04-29 14:50 38.28419 -0.55609 114 ft 12 kts
2026-04-29 14:51 38.28487 -0.55574 117 ft 10 kts 69°
2026-04-29 14:51 38.28514 -0.55520 115 ft 9 kts 21°
2026-04-29 14:51 38.28554 -0.55509 112 ft 3 kts 10°
2026-04-29 14:51 38.28565 -0.55507 111 ft 0 kts